| time (UTC) | temp F | wind direction | speed knots | gust knots | rain 1hr in | rain 24hr in | rain mn in | humidity % | barometer mb |
| 20260505022600 | 59 | 195 | 0.0 | 0.0 | 0.00 | 0.00 | 0.00 | 71 | 1017.6 |
| 20260505022057 | 59 | 199 | 0.0 | 0.0 | 0.00 | 0.00 | 0.00 | 71 | 1017.9 |
| 20260505021553 | 59 | 210 | 0.0 | 0.0 | 0.00 | 0.00 | 0.00 | 70 | 1017.6 |
| 20260505021050 | 60 | 217 | 0.0 | 0.0 | 0.00 | 0.00 | 0.00 | 70 | 1017.6 |
| 20260505020550 | 60 | 229 | 0.0 | 0.0 | 0.00 | 0.00 | 0.00 | 68 | 1017.6 |
| 20260505020047 | 61 | 191 | 0.0 | 0.0 | 0.00 | 0.00 | 0.00 | 68 | 1017.6 |
| 20260505015544 | 61 | 192 | 0.0 | 0.0 | 0.00 | 0.00 | 0.00 | 68 | 1017.6 |
| 20260505015041 | 61 | 209 | 0.0 | 0.0 | 0.00 | 0.00 | 0.00 | 69 | 1017.2 |
| 20260505014538 | 62 | 236 | 0.0 | 0.0 | 0.00 | 0.00 | 0.00 | 67 | 1017.2 |
| 20260505014035 | 61 | 220 | 0.0 | 0.0 | 0.00 | 0.00 | 0.00 | 66 | 1017.2 |
| 20260505013532 | 62 | 219 | 0.0 | 0.0 | 0.00 | 0.00 | 0.00 | 63 | 1017.2 |
| 20260505013030 | 62 | 208 | 0.0 | 0.0 | 0.00 | 0.00 | 0.00 | 63 | 1017.2 |
| 20260505012527 | 63 | 209 | 0.0 | 0.0 | 0.00 | 0.00 | 0.00 | 62 | 1017.2 |
| 20260505012024 | 63 | 198 | 0.0 | 0.0 | 0.00 | 0.00 | 0.00 | 60 | 1017.2 |
| 20260505011520 | 64 | 197 | 0.0 | 0.0 | 0.00 | 0.00 | 0.00 | 60 | 1016.9 |
| 20260505011017 | 64 | 198 | 0.0 | 0.0 | 0.00 | 0.00 | 0.00 | 58 | 1017.2 |
| 20260505010512 | 65 | 193 | 0.0 | 0.0 | 0.00 | 0.00 | 0.00 | 57 | 1016.9 |
| 20260505010009 | 65 | 193 | 0.0 | 0.0 | 0.00 | 0.00 | 0.00 | 57 | 1016.6 |
| 20260505005506 | 66 | 193 | 0.0 | 0.0 | 0.00 | 0.00 | 0.00 | 57 | 1016.9 |
| 20260505005004 | 66 | 188 | 0.0 | 0.0 | 0.00 | 0.00 | 0.00 | 55 | 1016.9 |
| 20260505004500 | 67 | 166 | 0.0 | 0.9 | 0.00 | 0.00 | 0.00 | 53 | 1016.6 |
| 20260505003956 | 67 | 209 | 0.0 | 0.0 | 0.00 | 0.00 | 0.00 | 52 | 1016.9 |
| 20260505003454 | 68 | 209 | 0.0 | 0.0 | 0.00 | 0.00 | 0.00 | 52 | 1016.9 |
| 20260505002950 | 69 | 175 | 0.0 | 0.0 | 0.00 | 0.00 | 0.00 | 51 | 1016.9 |
| 20260505002446 | 69 | 208 | 0.0 | 0.0 | 0.00 | 0.00 | 0.00 | 50 | 1016.6 |
| 20260505001945 | 70 | 208 | 0.0 | 0.0 | 0.00 | 0.00 | 0.00 | 46 | 1016.6 |
| 20260505001442 | 71 | 206 | 0.0 | 0.0 | 0.00 | 0.00 | 0.00 | 45 | 1016.6 |
| 20260505000939 | 72 | 158 | 0.9 | 0.9 | 0.00 | 0.00 | 0.00 | 45 | 1016.6 |
| 20260505000437 | 73 | 197 | 0.0 | 0.0 | 0.00 | 0.00 | 0.00 | 41 | 1016.6 |
| 20260504235933 | 73 | 211 | 0.0 | 0.0 | 0.00 | 0.00 | 0.00 | 38 | 1016.6 |
| 20260504235431 | 74 | 220 | 0.0 | 0.0 | 0.00 | 0.00 | 0.00 | 37 | 1016.6 |
| 20260504234927 | 74 | 249 | 0.9 | 0.9 | 0.00 | 0.00 | 0.00 | 37 | 1016.6 |
| 20260504234424 | 75 | 212 | 0.0 | 0.9 | 0.00 | 0.00 | 0.00 | 36 | 1016.9 |
| 20260504233921 | 76 | 225 | 0.0 | 1.7 | 0.00 | 0.00 | 0.00 | 35 | 1016.9 |
| 20260504233417 | 76 | 231 | 0.0 | 0.9 | 0.00 | 0.00 | 0.00 | 35 | 1016.9 |
| 20260504232914 | 77 | 133 | 0.9 | 0.9 | 0.00 | 0.00 | 0.00 | 35 | 1016.9 |
| 20260504232411 | 77 | 210 | 1.7 | 2.6 | 0.00 | 0.00 | 0.00 | 34 | 1016.6 |
| 20260504231908 | 78 | 258 | 0.9 | 1.7 | 0.00 | 0.00 | 0.00 | 34 | 1016.6 |
| 20260504231404 | 78 | 241 | 0.0 | 0.9 | 0.00 | 0.00 | 0.00 | 33 | 1016.6 |
| 20260504230901 | 78 | 240 | 1.7 | 1.7 | 0.00 | 0.00 | 0.00 | 33 | 1016.6 |
| 20260504230358 | 78 | 188 | 2.6 | 3.5 | 0.00 | 0.00 | 0.00 | 32 | 1016.6 |
| 20260504225856 | 79 | 241 | 0.0 | 0.9 | 0.00 | 0.00 | 0.00 | 34 | 1016.6 |
| 20260504225352 | 79 | 214 | 0.9 | 2.6 | 0.00 | 0.00 | 0.00 | 32 | 1016.6 |
| 20260504224850 | 79 | 239 | 0.0 | 5.2 | 0.00 | 0.00 | 0.00 | 33 | 1016.6 |
| 20260504224347 | 78 | 239 | 0.0 | 0.9 | 0.00 | 0.00 | 0.00 | 34 | 1016.6 |
| 20260504223843 | 78 | 209 | 0.0 | 0.0 | 0.00 | 0.00 | 0.00 | 31 | 1016.6 |
| 20260504223339 | 78 | 223 | 0.9 | 1.7 | 0.00 | 0.00 | 0.00 | 29 | 1016.6 |
| 20260504222836 | 78 | 226 | 0.0 | 0.9 | 0.00 | 0.00 | 0.00 | 31 | 1016.6 |
| 20260504222332 | 77 | 229 | 0.0 | 1.7 | 0.00 | 0.00 | 0.00 | 31 | 1016.6 |
| 20260504221831 | 79 | 235 | 0.0 | 1.7 | 0.00 | 0.00 | 0.00 | 29 | 1016.6 |
| 20260504221327 | 78 | 252 | 2.6 | 2.6 | 0.00 | 0.00 | 0.00 | 28 | 1016.6 |
| 20260504220825 | 80 | 239 | 0.9 | 2.6 | 0.00 | 0.00 | 0.00 | 26 | 1016.6 |
| 20260504220321 | 78 | 245 | 0.9 | 1.7 | 0.00 | 0.00 | 0.00 | 26 | 1016.6 |
| 20260504215819 | 79 | 178 | 3.5 | 5.2 | 0.00 | 0.00 | 0.00 | 26 | 1016.6 |
| 20260504215315 | 80 | 266 | 3.5 | 5.2 | 0.00 | 0.00 | 0.00 | 26 | 1016.6 |
| 20260504214811 | 80 | 256 | 0.9 | 3.5 | 0.00 | 0.00 | 0.00 | 26 | 1016.6 |
| 20260504214308 | 78 | 159 | 0.9 | 2.6 | 0.00 | 0.00 | 0.00 | 29 | 1016.6 |
| 20260504213804 | 77 | 127 | 1.7 | 6.1 | 0.00 | 0.00 | 0.00 | 30 | 1016.6 |
| 20260504213300 | 78 | 175 | 5.2 | 7.0 | 0.00 | 0.00 | 0.00 | 31 | 1016.6 |
| 20260504212758 | 78 | 242 | 0.0 | 1.7 | 0.00 | 0.00 | 0.00 | 33 | 1016.6 |
| 20260504212254 | 78 | 98 | 3.5 | 7.0 | 0.00 | 0.00 | 0.00 | 33 | 1016.6 |
| 20260504211752 | 78 | 158 | 2.6 | 5.2 | 0.00 | 0.00 | 0.00 | 33 | 1016.6 |
| 20260504211247 | 78 | 111 | 5.2 | 7.8 | 0.00 | 0.00 | 0.00 | 31 | 1016.6 |
| 20260504210745 | 78 | 88 | 1.7 | 3.5 | 0.00 | 0.00 | 0.00 | 33 | 1016.6 |
| 20260504210242 | 78 | 201 | 0.0 | 3.5 | 0.00 | 0.00 | 0.00 | 35 | 1016.6 |
| 20260504205739 | 78 | 158 | 3.5 | 6.1 | 0.00 | 0.00 | 0.00 | 32 | 1016.6 |
| 20260504205237 | 79 | 142 | 0.9 | 5.2 | 0.00 | 0.00 | 0.00 | 33 | 1016.6 |
| 20260504204735 | 79 | 250 | 0.0 | 2.6 | 0.00 | 0.00 | 0.00 | 34 | 1016.9 |
| 20260504204233 | 79 | 233 | 0.9 | 2.6 | 0.00 | 0.00 | 0.00 | 34 | 1016.6 |
| 20260504203732 | 79 | 106 | 2.6 | 3.5 | 0.00 | 0.00 | 0.00 | 34 | 1016.6 |
| 20260504203229 | 78 | 282 | 1.7 | 6.1 | 0.00 | 0.00 | 0.00 | 34 | 1016.6 |
| 20260504202729 | 78 | 162 | 0.9 | 3.5 | 0.00 | 0.00 | 0.00 | 33 | 1017.2 |
| 20260504202226 | 78 | 260 | 0.9 | 2.6 | 0.00 | 0.00 | 0.00 | 32 | 1016.9 |
| 20260504201724 | 79 | 175 | 2.6 | 6.1 | 0.00 | 0.00 | 0.00 | 32 | 1016.9 |
| 20260504201221 | 80 | 252 | 4.3 | 5.2 | 0.00 | 0.00 | 0.00 | 31 | 1016.9 |
| 20260504200718 | 78 | 240 | 0.9 | 1.7 | 0.00 | 0.00 | 0.00 | 31 | 1017.2 |
| 20260504200214 | 79 | 127 | 4.3 | 6.1 | 0.00 | 0.00 | 0.00 | 32 | 1017.2 |
| 20260504195711 | 78 | 314 | 1.7 | 3.5 | 0.00 | 0.00 | 0.00 | 32 | 1017.2 |
| 20260504195207 | 78 | 121 | 1.7 | 3.5 | 0.00 | 0.00 | 0.00 | 33 | 1017.6 |
| 20260504194704 | 78 | 209 | 0.9 | 0.9 | 0.00 | 0.00 | 0.00 | 33 | 1017.2 |
| 20260504194200 | 78 | 260 | 1.7 | 3.5 | 0.00 | 0.00 | 0.00 | 33 | 1017.6 |
| 20260504193656 | 78 | 97 | 1.7 | 3.5 | 0.00 | 0.00 | 0.00 | 34 | 1017.2 |
| 20260504193154 | 77 | 285 | 0.9 | 2.6 | 0.00 | 0.00 | 0.00 | 35 | 1017.6 |
| 20260504192652 | 78 | 157 | 3.5 | 3.5 | 0.00 | 0.00 | 0.00 | 33 | 1017.6 |
| 20260504192150 | 77 | 176 | 0.9 | 2.6 | 0.00 | 0.00 | 0.00 | 34 | 1017.9 |
| 20260504191648 | 78 | 238 | 3.5 | 6.1 | 0.00 | 0.00 | 0.00 | 34 | 1017.9 |
| 20260504191144 | 79 | 150 | 2.6 | 3.5 | 0.00 | 0.00 | 0.00 | 31 | 1017.9 |
| 20260504190640 | 78 | 256 | 3.5 | 5.2 | 0.00 | 0.00 | 0.00 | 30 | 1018.3 |
| 20260504190137 | 76 | 206 | 0.0 | 1.7 | 0.00 | 0.00 | 0.00 | 37 | 1018.3 |
| 20260504185633 | 77 | 72 | 2.6 | 2.6 | 0.00 | 0.00 | 0.00 | 33 | 1018.3 |
| 20260504185130 | 78 | 175 | 0.9 | 2.6 | 0.00 | 0.00 | 0.00 | 34 | 1018.6 |
| 20260504184626 | 77 | 288 | 1.7 | 2.6 | 0.00 | 0.00 | 0.00 | 31 | 1018.3 |
| 20260504184121 | 76 | 346 | 0.9 | 5.2 | 0.00 | 0.00 | 0.00 | 32 | 1018.6 |
| 20260504183619 | 77 | 259 | 0.0 | 2.6 | 0.00 | 0.00 | 0.00 | 31 | 1018.6 |
| 20260504183116 | 76 | 226 | 0.0 | 2.6 | 0.00 | 0.00 | 0.00 | 37 | 1018.6 |
| 20260504182614 | 75 | 127 | 0.9 | 1.7 | 0.00 | 0.00 | 0.00 | 32 | 1018.6 |
| 20260504182111 | 76 | 71 | 1.7 | 2.6 | 0.00 | 0.00 | 0.00 | 31 | 1018.6 |
| 20260504181608 | 78 | 144 | 3.5 | 7.0 | 0.00 | 0.00 | 0.00 | 33 | 1018.6 |
| 20260504181106 | 77 | 224 | 0.0 | 1.7 | 0.00 | 0.00 | 0.00 | 36 | 1018.6 |
| 20260504180605 | 76 | 225 | 2.6 | 2.6 | 0.00 | 0.00 | 0.00 | 37 | 1018.9 |
| 20260504180103 | 74 | 171 | 2.6 | 5.2 | 0.00 | 0.00 | 0.00 | 36 | 1018.9 |
| 20260504175600 | 75 | 134 | 4.3 | 5.2 | 0.00 | 0.00 | 0.00 | 34 | 1018.9 |
| 20260504175056 | 75 | 112 | 4.3 | 5.2 | 0.00 | 0.00 | 0.00 | 35 | 1018.9 |
| 20260504174555 | 75 | 92 | 1.7 | 5.2 | 0.00 | 0.00 | 0.00 | 37 | 1018.9 |
| 20260504174051 | 76 | 307 | 1.7 | 2.6 | 0.00 | 0.00 | 0.00 | 38 | 1018.9 |
| 20260504173548 | 75 | 230 | 0.0 | 1.7 | 0.00 | 0.00 | 0.00 | 37 | 1019.3 |
| 20260504173046 | 74 | 238 | 1.7 | 2.6 | 0.00 | 0.00 | 0.00 | 38 | 1018.9 |
| 20260504172541 | 76 | 255 | 3.5 | 3.5 | 0.00 | 0.00 | 0.00 | 35 | 1019.3 |
| 20260504172038 | 75 | 226 | 2.6 | 3.5 | 0.00 | 0.00 | 0.00 | 39 | 1019.3 |
| 20260504171535 | 75 | 237 | 1.7 | 5.2 | 0.00 | 0.00 | 0.00 | 37 | 1019.3 |
| 20260504171032 | 74 | 166 | 0.9 | 6.1 | 0.00 | 0.00 | 0.00 | 37 | 1019.3 |
| 20260504170528 | 75 | 225 | 0.0 | 1.7 | 0.00 | 0.00 | 0.00 | 43 | 1019.3 |
| 20260504150912 | 71 | 214 | 0.9 | 3.5 | 0.00 | 0.00 | 0.00 | 39 | 1020.7 |
| 20260504150409 | 71 | 298 | 2.6 | 5.2 | 0.00 | 0.00 | 0.00 | 36 | 1020.7 |
| 20260504140835 | 68 | 123 | 0.9 | 1.7 | 0.00 | 0.00 | 0.00 | 56 | 1021.1 |
| 20260504140330 | 66 | 156 | 0.9 | 1.7 | 0.00 | 0.00 | 0.00 | 61 | 1021.1 |
| 20260504130800 | 59 | 221 | 0.9 | 0.9 | 0.00 | 0.00 | 0.00 | 81 | 1021.1 |
| 20260504130256 | 58 | 210 | 0.0 | 0.9 | 0.00 | 0.00 | 0.00 | 83 | 1020.7 |
| 20260504120219 | 48 | 239 | 0.9 | 1.7 | 0.00 | 0.00 | 0.00 | 99 | 1020.4 |
| 20260504110646 | 45 | 207 | 0.0 | 0.0 | 0.00 | 0.00 | 0.00 | 99 | 1020.4 |
| 20260504110143 | 45 | 223 | 0.0 | 0.0 | 0.00 | 0.00 | 0.00 | 99 | 1020.1 |
| 20260504100603 | 45 | 230 | 0.0 | 0.0 | 0.00 | 0.00 | 0.00 | 99 | 1020.1 |
| 20260504081956 | 47 | 236 | 0.0 | 0.0 | 0.00 | 0.00 | 0.00 | 99 | 1020.1 |
| 20260504081454 | 47 | 237 | 0.0 | 0.0 | 0.00 | 0.00 | 0.00 | 99 | 1020.1 |
| 20260504080949 | 46 | 228 | 0.0 | 0.0 | 0.00 | 0.00 | 0.00 | 99 | 1020.1 |
| 20260504080446 | 46 | 227 | 0.0 | 0.0 | 0.00 | 0.00 | 0.00 | 99 | 1020.1 |
| 20260504050259 | 50 | 229 | 0.0 | 0.0 | 0.00 | 0.00 | 0.00 | 97 | 1020.7 |
| 20260504045751 | 50 | 229 | 0.0 | 0.0 | 0.00 | 0.00 | 0.00 | 97 | 1020.7 |
| 20260504045250 | 50 | 230 | 0.0 | 0.0 | 0.00 | 0.00 | 0.00 | 96 | 1021.1 |
| 20260504044748 | 50 | 230 | 0.0 | 0.0 | 0.00 | 0.00 | 0.00 | 96 | 1020.7 |
| 20260504044245 | 49 | 229 | 0.0 | 0.0 | 0.00 | 0.00 | 0.00 | 95 | 1020.7 |
| 20260504043742 | 50 | 229 | 0.0 | 0.0 | 0.00 | 0.00 | 0.00 | 95 | 1020.7 |
| 20260504043239 | 51 | 229 | 0.0 | 0.0 | 0.00 | 0.00 | 0.00 | 95 | 1020.7 |
| 20260504042737 | 51 | 224 | 0.0 | 0.0 | 0.00 | 0.00 | 0.00 | 95 | 1020.7 |
| 20260504042233 | 51 | 211 | 0.0 | 0.0 | 0.00 | 0.00 | 0.00 | 95 | 1020.4 |
| 20260504041729 | 51 | 224 | 0.0 | 0.0 | 0.00 | 0.00 | 0.00 | 94 | 1020.7 |
| 20260504041225 | 51 | 216 | 0.0 | 0.0 | 0.00 | 0.00 | 0.00 | 93 | 1020.4 |
| 20260504040722 | 51 | 222 | 0.0 | 0.0 | 0.00 | 0.00 | 0.00 | 94 | 1020.4 |
| 20260504040219 | 51 | 233 | 0.0 | 0.0 | 0.00 | 0.00 | 0.00 | 93 | 1020.7 |
| 20260504035715 | 51 | 226 | 0.0 | 0.0 | 0.00 | 0.00 | 0.00 | 93 | 1020.7 |
| 20260504035213 | 52 | 198 | 0.0 | 0.0 | 0.00 | 0.00 | 0.00 | 92 | 1020.4 |
| 20260504034710 | 52 | 192 | 0.0 | 0.0 | 0.00 | 0.00 | 0.00 | 92 | 1020.4 |
| 20260504034207 | 52 | 171 | 0.9 | 0.9 | 0.00 | 0.00 | 0.00 | 93 | 1020.4 |
| 20260504033705 | 52 | 208 | 0.0 | 0.0 | 0.00 | 0.00 | 0.00 | 91 | 1020.4 |
| 20260504033202 | 52 | 205 | 0.0 | 0.0 | 0.00 | 0.00 | 0.00 | 91 | 1020.7 |
| 20260504032658 | 53 | 203 | 0.0 | 0.9 | 0.00 | 0.00 | 0.00 | 91 | 1020.4 |
| 20260504032156 | 53 | 217 | 0.0 | 0.0 | 0.00 | 0.00 | 0.00 | 90 | 1020.1 |
| 20260504031653 | 53 | 200 | 0.0 | 0.0 | 0.00 | 0.00 | 0.00 | 90 | 1020.4 |
| 20260504031149 | 53 | 216 | 0.0 | 0.0 | 0.00 | 0.00 | 0.00 | 90 | 1020.4 |
| 20260504030646 | 53 | 217 | 0.0 | 0.0 | 0.00 | 0.00 | 0.00 | 88 | 1020.4 |
| 20260504030143 | 54 | 217 | 0.0 | 0.0 | 0.00 | 0.00 | 0.00 | 87 | 1020.4 |
| 20260504025639 | 53 | 230 | 0.0 | 0.0 | 0.00 | 0.00 | 0.00 | 86 | 1020.4 |
| 20260504025136 | 54 | 231 | 0.0 | 0.0 | 0.00 | 0.00 | 0.00 | 85 | 1020.4 |
| 20260504024633 | 54 | 217 | 0.0 | 0.0 | 0.00 | 0.00 | 0.00 | 85 | 1020.1 |
| 20260504024130 | 55 | 204 | 0.0 | 0.0 | 0.00 | 0.00 | 0.00 | 84 | 1020.1 |
| 20260504023627 | 55 | 235 | 0.9 | 1.7 | 0.00 | 0.00 | 0.00 | 83 | 1020.4 |
| 20260504023123 | 55 | 270 | 0.0 | 1.7 | 0.00 | 0.00 | 0.00 | 83 | 1020.1 |